Powrót do katalogu

BREEZE-M DEB

AktywnyHEO
NORAD 38573·DEBRIS·🇷🇺 Russia

Wystrzelony Mar 14, 2008 z Baikonur Cosmodrome

Loading…

Następne Przeloty (najbliższe 24 godziny)

TLE

ŚwieżeSource: Space-Track

Epoka: Sep 5, 2026, 10:17 UTC

1 38573U 08011U   26248.42907400  .00000079  00000-0  00000-0 0  9990
2 38573  48.5311 150.2514 6303874 106.6065  14.2334  3.02070819 12014

Śledź BREEZE-M DEB w czasie rzeczywistym z AllMySat

Download on the App Store